Location: Sternwarte ZA, Rosenfeld-Brittheim
(48.2889°N, 8.6789°E)
Time: 01:19:20
(UTC+02:00)

ISS - Pass Details

Date: 18 July 2018
Orbit: 402 x 408 km, 51.6° (Epoch: 18 July)

Event Time Altitude Azimuth Distance (km) Brightness Sun altitude
Rises 03:57:36 0° 290° (WNW) 2,332 -0.1 -13.4°
Reaches altitude 10° 03:59:42 10° 293° (WNW) 1,471 -1.1 -13.1°
Maximum altitude 04:02:59 65° 16° (NNE) 451 -3.4 -12.8°
Drops below altitude 10° 04:06:15 10° 100° (E) 1,469 -0.6 -12.5°
Sets 04:08:21 0° 103° (ESE) 2,328 0.4 -12.3°
